Wetbulb
49.95 49.26 49.29 48.79 49.31 50.42 49.63 49.63 49.28 50.24 50.52 50.49 50.00 50.75 47.80 46.43 46.67 48.33 47.09 47.08 48.15 49.00 48.54 47.42 48.57 48.92 48.90 48.85 49.24 49.32 48.94 50.18 48.37 48.65 50.63 50.87 50.34 50.14 50.62 51.50 52.11 51.87 52.93
50.18 49.69 49.07 49.65 49.30 49.73 49.06 49.21 49.09 49.40 49.27 49.75 50.12 49.28 48.30 45.99 45.18 46.54 47.78 48.79 46.06 47.92 47.77 47.87 48.22 49.60 47.36 47.91 48.35 48.36 48.23 48.98 50.01 47.08 49.12 48.51 48.49 49.13 49.15 48.58 50.05 51.27 51.38
50.37 49.81 49.53 49.37 48.52 48.27 48.67 48.58 49.22 49.35 50.86 51.13 51.11 49.93 48.68 46.12 44.71 45.15 47.62 47.54 47.52 47.98 48.08 47.86 48.06 48.25 47.21 47.35 48.16 48.03 48.55 49.19 50.41 48.49 47.64 48.47 47.93 48.29 47.42 48.11 48.49 49.43 50.42
50.29 49.51 48.62 48.62 48.36 48.94 48.40 49.33 49.06 51.18 50.83 50.59 49.28 50.06 49.58 44.28 44.25 45.08 47.43 48.19 49.16 48.94 49.05 48.49 48.73 48.51 46.67 47.58 48.65 48.25 48.40 49.42 49.34 48.42 47.19 46.86 46.97 47.57 47.39 46.03 45.85 47.82 47.37
50.11 49.35 49.10 49.63 49.63 49.34 49.52 48.53 49.02 51.51 50.95 51.17 50.44 49.86 49.28 44.35 45.10 44.40 45.30 47.86 48.96 48.64 48.30 48.01 49.19 50.16 51.24 50.22 48.92 48.20 47.98 47.55 47.95 47.19 46.36 46.28 45.38 45.60 44.53 46.05 45.54 46.94 47.97
49.17 48.98 50.39 49.96 50.22 49.30 48.23 49.59 51.11 49.13 49.48 51.06 49.20 49.22 47.95 47.04 46.24 47.01 47.68 47.73 49.01 48.38 47.08 45.65 48.73 47.71 47.02 49.97 50.18 50.49 49.92 47.15 46.32 46.19 45.96 45.61 45.96 45.89 45.73 45.55 44.98 44.01 43.77
50.16 50.58 50.74 50.32 50.45 50.18 49.49 49.73 49.04 48.07 50.49 48.30 49.68 48.28 46.47 43.18 45.74 45.42 47.11 48.88 46.71 47.69 44.09 43.23 45.67 46.11 45.47 46.10 49.63 48.26 48.17 50.16 50.09 47.08 45.30 45.45 45.45 46.40 46.51 45.09 45.70 45.80 44.43
49.73 50.13 50.85 51.24 49.89 50.99 50.41 49.09 48.40 48.96 50.17 48.23 48.97 47.98 48.01 45.38 45.72 44.67 45.91 46.32 46.10 48.08 46.05 43.52 42.32 42.34 45.09 45.07 48.10 47.16 45.13 45.25 45.80 48.95 47.94 48.04 48.30 48.52 48.23 48.36 48.51 48.07 46.00
50.62 49.73 50.42 52.00 49.70 49.38 49.32 48.74 48.57 48.74 48.13 48.02 48.43 47.40 46.35 45.19 44.89 44.28 43.56 44.00 46.42 47.41 47.59 44.93 43.07 42.13 44.89 44.68 46.62 47.46 46.92 46.10 49.05 47.94 47.89 48.09 47.80 48.58 50.03 49.22 47.37 44.15 44.88
52.02 50.28 50.48 50.67 50.79 48.83 49.14 48.16 48.38 48.45 47.77 48.64 48.44 47.09 47.85 47.04 44.54 43.84 43.18 42.99 42.55 45.98 48.01 46.74 47.17 44.34 44.09 43.87 44.07 44.04 42.55 43.26 45.19 47.96 46.78 47.57 46.49 46.69 49.20 48.66 49.61 46.90 46.74
52.71 50.94 51.25 50.05 48.72 49.67 50.04 48.39 48.36 47.64 47.57 46.76 47.55 47.06 45.09 45.23 44.87 43.36 43.64 41.98 41.56 45.94 46.90 43.53 46.01 44.81 44.21 43.57 43.61 41.34 41.12 42.70 45.75 47.45 46.97 47.74 49.59 49.82 50.36 49.96 50.04 49.03 47.28
51.58 50.90 49.36 49.07 50.28 49.70 49.52 48.61 47.84 47.67 45.63 45.07 44.06 45.94 46.88 47.07 45.10 43.61 43.08 43.59 44.90 43.38 44.49 44.98 44.96 42.92 43.71 44.38 44.69 43.68 44.64 45.70 47.08 46.39 45.64 44.36 43.46 44.96 46.96 47.82 48.66 48.67 49.34
49.11 47.87 48.64 48.84 49.28 49.86 48.81 49.68 48.11 48.39 46.89 42.94 43.20 42.55 44.36 44.54 42.36 43.99 43.18 43.20 44.28 42.63 43.44 44.63 43.87 43.43 43.84 44.05 45.01 45.11 46.24 47.01 46.27 45.44 44.54 42.89 44.77 46.49 48.29 47.41 47.62 45.56 44.88
49.86 49.60 48.39 47.58 47.84 48.10 48.83 49.54 45.65 44.79 44.53 42.76 42.74 41.32 41.21 41.27 40.40 40.61 41.08 40.57 42.30 42.03 43.34 44.28 46.00 44.80 44.70 45.11 43.53 45.38 44.60 45.57 45.33 44.78 45.07 46.29 46.62 46.05 44.66 43.21 42.71 44.21 44.40
48.32 48.44 48.12 48.10 47.24 47.91 49.66 49.19 47.86 48.24 46.33 42.10 42.45 42.67 40.09 39.74 40.23 39.25 39.07 39.24 38.57 39.70 40.17 44.63 44.88 44.74 43.33 42.86 41.76 43.23 44.38 44.67 44.76 45.24 44.75 45.27 45.06 45.40 46.35 46.85 45.93 45.79 44.30
47.64 49.43 47.92 46.48 47.83 49.38 47.17 48.39 46.97 46.36 43.78 42.88 41.84 42.37 42.12 40.97 40.21 40.34 40.39 40.07 40.13 39.77 42.24 41.91 41.88 41.39 40.56 42.16 41.44 41.74 42.16 43.32 43.77 45.42 45.19 44.57 44.78 44.05 43.31 45.21 45.05 44.56 44.49
48.07 49.87 48.76 48.77 47.97 47.82 47.78 46.84 42.57 45.18 42.21 42.93 42.69 42.11 40.65 40.80 41.31 40.84 40.45 39.77 40.22 41.05 41.75 41.35 40.85 41.69 41.73 42.55 42.88 42.40 42.00 43.23 43.86 43.46 44.45 44.84 44.43 44.29 43.57 44.22 45.17 44.41 43.64
48.99 47.82 45.37 47.52 48.20 47.56 47.75 47.12 47.11 44.28 45.12 45.25 41.48 41.69 40.45 39.96 40.33 40.29 40.33 40.59 42.49 42.08 41.41 41.04 42.38 42.15 42.25 42.56 43.18 43.38 43.54 43.06 43.79 43.37 43.42 44.12 44.77 44.29 43.88 43.96 43.84 44.80 44.62
50.73 48.76 47.07 49.26 47.07 46.35 47.44 44.77 46.96 46.59 46.31 44.42 44.23 40.79 41.04 39.66 39.75 39.42 39.21 42.49 42.26 42.15 42.01 41.93 43.37 43.31 44.05 42.87 42.26 42.42 42.92 42.41 43.09 43.70 43.81 43.75 44.16 44.00 44.23 45.40 45.86 39.90 40.87
49.83 46.73 44.85 46.65 48.20 47.79 47.72 46.98 46.33 46.47 46.02 46.11 45.86 44.90 44.44 40.46 40.13 40.75 40.80 41.53 42.30 42.52 42.42 42.12 42.95 43.09 43.46 43.35 42.48 39.35 39.05 41.38 42.55 42.80 44.08 44.48 44.46 44.23 43.35 43.37 43.95 44.52 45.63
50.24 48.67 42.13 47.14 47.79 48.02 47.53 47.27 47.19 45.84 45.37 44.18 42.73 41.76 34.24 40.58 39.42 40.31 41.83 42.87 42.50 42.63 42.29 41.97 42.06 41.68 41.95 42.09 41.52 40.68 38.47 40.50 40.61 40.64 41.30 42.39 43.22 43.02 42.35 42.09 43.65 45.30 46.81
49.10 48.47 48.05 48.48 48.19 48.62 48.19 48.29 46.70 46.14 44.86 44.63 40.74 39.69 35.47 40.50 39.70 39.89 42.07 42.23 42.32 42.35 43.06 42.73 42.03 41.78 42.33 42.34 42.01 39.89 36.91 35.66 37.82 38.51 39.11 40.27 40.87 41.76 42.23 40.05 41.09 43.71 45.23
50.26 49.19 49.22 48.47 48.52 44.67 47.14 45.98 46.58 47.24 45.69 45.20 44.23 43.40 40.97 39.77 39.44 39.34 41.53 42.39 42.74 42.82 42.90 42.65 42.31 42.24 43.18 42.82 41.66 38.48 35.17 33.42 34.31 36.04 37.05 36.68 37.74 38.68 39.04 39.27 40.03 40.78 41.95
47.61 49.65 49.12 47.80 47.46 48.42 47.73 47.46 46.58 42.74 44.88 43.10 41.72 40.92 40.18 39.62 39.67 40.02 41.67 41.75 42.35 42.65 43.14 42.87 42.67 42.52 40.51 39.49 38.56 35.71 31.57 30.24 30.53 32.50 33.82 33.62 34.09 35.71 38.13 39.62 39.74 40.65 41.56
45.92 48.35 48.69 48.72 48.58 48.03 47.72 46.47 44.38 43.61 43.24 42.71 41.23 40.69 39.93 39.94 39.61 42.18 42.41 42.35 42.05 42.42 42.58 42.79 42.51 37.56 36.14 34.86 34.01 33.15 30.46 30.64 29.71 30.37 30.56 33.09 33.58 34.50 37.13 40.47 40.97 42.00 42.83
50.38 49.95 49.99 49.27 47.72 47.10 44.10 43.34 43.36 42.66 42.15 42.13 40.98 40.03 40.13 40.49 41.93 41.96 41.70 41.65 41.43 41.83 42.10 40.68 40.55 38.07 36.11 34.24 32.68 30.75 30.45 30.16 29.92 29.90 29.96 30.06 32.81 34.87 38.57 41.45 41.21 41.46 41.67
MSLP
1022.21 1022.44 1022.52 1022.58 1022.57 1022.49 1022.41 1022.23 1022.02 1021.73 1021.48 1021.36 1021.10 1020.89 1020.80 1020.66 1020.34 1019.96 1019.65 1019.38 1019.09 1018.69 1018.30 1017.96 1017.51 1017.02 1016.70 1016.31 1015.84 1015.47 1015.13 1014.73 1014.54 1014.67 1014.54 1014.61 1014.55 1014.58 1014.30 1014.09 1013.88 1013.70 1013.47
1021.96 1022.29 1022.39 1022.33 1022.32 1022.24 1022.10 1022.06 1021.80 1021.94 1021.65 1021.37 1021.25 1021.00 1020.88 1020.78 1020.46 1020.13 1019.79 1019.47 1019.16 1018.74 1018.36 1017.96 1017.65 1017.23 1016.84 1016.40 1015.92 1015.44 1015.05 1014.74 1014.41 1014.59 1014.89 1015.17 1015.21 1015.15 1015.01 1014.82 1014.64 1014.45 1014.21
1022.08 1022.35 1022.43 1022.25 1022.21 1022.16 1021.99 1021.76 1021.81 1021.83 1021.66 1021.21 1021.19 1021.11 1021.00 1020.90 1020.63 1020.23 1019.85 1019.52 1019.15 1018.72 1018.33 1018.00 1017.68 1017.38 1017.03 1016.54 1015.98 1015.46 1014.87 1014.52 1014.30 1014.57 1014.98 1015.35 1015.59 1015.72 1015.73 1015.50 1015.35 1015.18 1015.03
1021.95 1022.34 1022.43 1022.31 1022.13 1021.92 1021.69 1021.64 1021.48 1021.57 1021.59 1021.38 1021.30 1021.22 1021.01 1020.91 1020.75 1020.44 1019.97 1019.52 1019.16 1018.75 1018.32 1017.97 1017.69 1017.44 1017.15 1016.64 1016.10 1015.56 1014.87 1014.43 1014.47 1014.77 1015.20 1015.52 1015.76 1016.02 1016.02 1016.02 1015.97 1015.75 1015.73
1021.83 1022.08 1022.03 1021.77 1021.59 1021.59 1021.62 1021.55 1021.47 1021.52 1021.51 1021.40 1021.30 1021.32 1021.10 1020.92 1020.83 1020.55 1020.05 1019.55 1019.21 1018.86 1018.45 1018.10 1017.86 1017.54 1017.21 1016.82 1016.48 1016.05 1015.41 1015.04 1014.98 1015.13 1015.50 1015.75 1015.98 1016.09 1016.09 1016.09 1016.17 1016.12 1016.14
1021.50 1021.58 1021.37 1021.37 1021.32 1021.37 1021.44 1021.51 1021.52 1021.44 1021.35 1021.34 1021.29 1021.29 1021.25 1021.10 1020.82 1020.46 1020.08 1019.56 1019.23 1019.02 1018.83 1018.40 1018.08 1017.96 1017.55 1017.03 1016.63 1016.32 1015.92 1015.60 1015.54 1015.65 1015.81 1015.94 1016.09 1016.18 1016.18 1016.15 1016.24 1016.24 1016.28
1021.24 1021.22 1021.26 1021.35 1021.28 1021.15 1021.13 1021.21 1021.42 1021.42 1021.29 1021.28 1021.20 1021.18 1021.23 1021.16 1020.88 1020.35 1019.95 1019.65 1019.39 1019.22 1019.10 1018.82 1018.41 1018.24 1017.84 1017.32 1016.82 1016.55 1016.30 1016.12 1015.99 1015.92 1015.98 1016.04 1016.08 1016.20 1016.18 1016.27 1016.24 1016.05 1016.07
1020.91 1020.99 1020.92 1021.01 1021.09 1021.02 1020.98 1021.13 1021.28 1021.25 1021.18 1021.17 1021.09 1021.04 1021.13 1021.05 1020.84 1020.39 1019.97 1019.79 1019.52 1019.28 1019.07 1019.05 1018.75 1018.39 1018.08 1017.66 1017.09 1016.81 1016.65 1016.48 1016.32 1016.12 1016.01 1016.00 1015.95 1016.06 1016.10 1016.16 1016.15 1016.07 1016.05
1020.58 1020.54 1020.58 1020.71 1020.97 1021.12 1021.12 1021.12 1021.16 1021.17 1021.10 1021.05 1021.00 1020.93 1021.01 1020.96 1020.75 1020.43 1020.07 1019.90 1019.63 1019.31 1019.13 1019.00 1018.90 1018.58 1018.19 1017.81 1017.47 1017.08 1016.99 1016.73 1016.24 1016.22 1016.14 1016.06 1015.99 1015.95 1015.97 1016.05 1015.96 1016.23 1016.25
1020.11 1020.29 1020.35 1020.51 1020.77 1021.10 1021.02 1021.10 1021.01 1021.03 1021.01 1020.87 1020.80 1020.73 1020.80 1020.86 1020.68 1020.44 1020.19 1019.94 1019.88 1019.46 1019.13 1019.11 1018.97 1018.74 1018.43 1018.02 1017.86 1017.78 1017.45 1017.04 1016.65 1016.17 1016.10 1016.02 1016.03 1016.06 1015.96 1015.98 1015.77 1015.82 1015.74
1019.63 1020.10 1020.36 1020.50 1020.78 1020.92 1020.95 1020.89 1020.92 1020.88 1020.81 1020.80 1020.68 1020.75 1020.74 1020.63 1020.51 1020.34 1020.20 1019.98 1019.95 1019.72 1019.46 1019.30 1019.05 1018.85 1018.58 1018.29 1018.00 1017.82 1017.59 1017.05 1016.49 1016.27 1016.20 1016.16 1015.95 1015.98 1015.97 1015.74 1015.61 1015.62 1015.53
1019.77 1020.13 1020.49 1020.61 1020.70 1020.79 1020.84 1020.80 1020.74 1020.68 1020.72 1020.80 1020.83 1020.79 1020.53 1020.58 1020.61 1020.54 1020.30 1020.03 1019.76 1019.78 1019.64 1019.28 1019.01 1018.86 1018.71 1018.43 1018.08 1017.61 1017.17 1016.79 1016.50 1016.44 1016.49 1016.53 1016.45 1016.30 1016.00 1015.81 1015.56 1015.46 1015.42
1019.97 1020.34 1020.39 1020.56 1020.65 1020.66 1020.72 1020.63 1020.67 1020.59 1020.62 1020.80 1020.93 1021.02 1020.92 1020.86 1020.79 1020.59 1020.47 1020.30 1020.09 1019.86 1019.51 1019.12 1018.82 1018.81 1018.66 1018.50 1018.17 1017.74 1017.32 1017.09 1017.03 1016.88 1016.80 1016.72 1016.50 1016.21 1015.93 1015.81 1015.72 1015.71 1015.69
1019.93 1020.30 1020.39 1020.56 1020.65 1020.55 1020.48 1020.43 1020.64 1020.51 1020.57 1020.83 1021.10 1021.23 1021.16 1021.22 1021.05 1020.83 1020.70 1020.51 1020.18 1019.80 1019.35 1018.91 1018.67 1018.66 1018.62 1018.65 1018.39 1017.92 1017.73 1017.55 1017.34 1017.23 1016.97 1016.58 1016.34 1016.17 1016.02 1015.96 1016.03 1015.92 1016.01
1020.02 1020.27 1020.38 1020.39 1020.49 1020.45 1020.14 1020.05 1020.19 1020.18 1020.20 1020.56 1020.95 1021.09 1021.12 1021.21 1021.16 1020.97 1020.80 1020.55 1020.25 1019.89 1019.48 1019.05 1018.91 1018.80 1018.75 1018.68 1018.62 1018.20 1017.95 1017.74 1017.56 1017.36 1017.14 1016.83 1016.60 1016.31 1016.16 1015.96 1015.88 1015.87 1015.88
1019.91 1020.12 1020.17 1020.22 1020.18 1020.10 1019.93 1019.80 1019.56 1019.74 1019.92 1020.19 1020.39 1020.65 1020.79 1020.92 1021.00 1020.91 1020.66 1020.28 1019.84 1019.68 1019.43 1019.38 1019.12 1018.98 1018.89 1018.73 1018.58 1018.39 1018.05 1017.92 1017.73 1017.44 1017.19 1017.01 1016.85 1016.68 1016.52 1016.24 1016.03 1016.02 1015.92
1019.81 1019.84 1019.96 1019.95 1019.74 1019.74 1019.62 1019.53 1019.75 1019.56 1019.71 1020.03 1020.22 1020.42 1020.65 1020.84 1020.87 1020.80 1020.64 1020.27 1019.83 1019.69 1019.66 1019.46 1019.29 1019.06 1018.83 1018.64 1018.48 1018.34 1018.20 1017.88 1017.65 1017.51 1017.30 1017.06 1016.92 1016.75 1016.59 1016.38 1016.17 1016.03 1015.97
1019.33 1019.46 1019.72 1019.61 1019.55 1019.40 1019.41 1019.38 1019.41 1019.55 1019.67 1019.85 1019.98 1020.13 1020.33 1020.69 1020.76 1020.74 1020.57 1020.22 1020.03 1019.83 1019.74 1019.55 1019.30 1019.03 1018.81 1018.65 1018.46 1018.28 1018.05 1017.84 1017.57 1017.48 1017.35 1017.14 1016.86 1016.73 1016.59 1016.38 1016.28 1016.04 1015.84
1019.17 1019.37 1019.48 1019.23 1019.22 1019.13 1019.11 1019.21 1019.23 1019.03 1019.04 1019.27 1019.69 1020.12 1020.06 1020.45 1020.57 1020.61 1020.54 1020.51 1020.12 1019.90 1019.74 1019.52 1019.27 1019.11 1018.81 1018.58 1018.47 1018.31 1018.11 1017.94 1017.68 1017.49 1017.28 1017.15 1016.89 1016.76 1016.54 1016.36 1016.13 1015.97 1015.71
1019.00 1019.08 1019.17 1019.24 1019.20 1019.08 1019.12 1019.11 1018.97 1018.93 1018.93 1019.14 1019.54 1019.73 1019.80 1020.21 1020.57 1020.40 1020.36 1020.31 1020.16 1019.92 1019.68 1019.46 1019.21 1019.00 1018.75 1018.55 1018.51 1018.46 1018.39 1018.12 1017.85 1017.65 1017.25 1017.10 1016.93 1016.77 1016.65 1016.47 1016.20 1015.92 1015.55
1018.75 1018.98 1019.01 1019.16 1019.08 1018.98 1018.96 1018.94 1018.80 1018.76 1018.78 1019.08 1019.37 1019.56 1019.82 1020.24 1020.52 1020.51 1020.31 1020.24 1020.07 1019.87 1019.59 1019.38 1019.13 1018.90 1018.60 1018.40 1018.34 1018.44 1018.51 1018.46 1018.27 1017.99 1017.65 1017.42 1017.09 1016.81 1016.73 1016.66 1016.21 1015.82 1015.17
1018.50 1018.69 1018.85 1018.85 1018.75 1018.68 1018.67 1018.62 1018.57 1018.63 1018.48 1018.86 1019.31 1019.90 1020.12 1020.38 1020.53 1020.49 1020.23 1020.20 1019.98 1019.69 1019.39 1019.22 1019.00 1018.72 1018.38 1018.14 1018.17 1018.45 1018.74 1018.79 1018.53 1018.24 1017.91 1017.57 1017.18 1016.90 1016.85 1016.78 1016.42 1015.83 1015.32
1018.25 1018.42 1018.52 1018.47 1018.39 1018.44 1018.52 1018.36 1018.33 1018.33 1018.38 1018.96 1019.47 1020.16 1020.53 1020.60 1020.55 1020.39 1020.26 1020.15 1019.89 1019.61 1019.24 1018.98 1018.77 1018.43 1018.07 1018.10 1018.31 1018.62 1018.99 1019.01 1018.77 1018.38 1018.03 1017.72 1017.36 1017.16 1017.03 1016.77 1016.44 1015.92 1015.37
1018.13 1018.15 1018.15 1018.12 1018.11 1018.13 1018.16 1018.20 1018.21 1018.49 1019.17 1019.57 1020.08 1020.36 1020.49 1020.51 1020.54 1020.42 1020.32 1020.09 1019.83 1019.37 1019.01 1018.71 1018.36 1018.28 1018.55 1018.81 1018.98 1019.13 1019.17 1019.09 1018.88 1018.51 1018.14 1017.83 1017.46 1017.08 1016.80 1016.49 1016.14 1015.67 1015.29
1017.70 1017.53 1017.57 1017.72 1017.71 1017.80 1017.92 1018.20 1018.60 1018.85 1019.27 1019.65 1020.06 1020.27 1020.37 1020.36 1020.39 1020.29 1020.15 1019.94 1019.62 1019.28 1018.80 1018.37 1018.29 1018.94 1019.09 1019.31 1019.28 1019.18 1019.18 1019.00 1018.73 1018.47 1018.24 1017.77 1017.34 1016.94 1016.56 1016.07 1015.68 1015.26 1014.88
1017.25 1016.85 1016.99 1017.25 1017.62 1017.77 1017.92 1018.11 1018.47 1018.81 1019.20 1019.54 1019.83 1020.06 1020.21 1020.31 1020.28 1020.17 1020.01 1019.78 1019.52 1019.24 1018.87 1018.89 1018.94 1019.26 1019.49 1019.59 1019.52 1019.37 1019.17 1018.88 1018.64 1018.39 1018.16 1017.84 1017.19 1016.60 1016.15 1015.68 1015.27 1014.89 1014.52
Wind_Speed
7 5 5 2 2 3 3 4 4 4 6 6 5 5 6 6 7 6 6 6 8 6 6 6 6 6 4 4 4 4 3 2 2 1 2 5 5 5 7 7 8 7 9
7 6 4 2 2 3 2 3 3 5 4 5 5 5 5 6 7 7 7 5 6 7 7 6 6 5 6 6 4 5 4 3 2 2 2 3 5 6 6 7 6 7 7
7 5 3 3 3 2 1 2 4 4 5 5 5 5 5 5 7 7 7 6 7 6 6 5 5 5 6 6 6 5 4 3 2 2 2 2 4 3 4 5 4 5 5
7 5 3 3 2 2 1 2 2 3 4 5 6 4 5 5 6 7 8 7 7 6 6 5 4 4 5 6 7 7 6 1 3 5 4 2 2 2 3 2 3 4 4
6 5 5 5 5 4 2 3 3 3 3 4 5 3 5 4 5 7 6 6 6 6 6 6 5 8 12 10 5 6 6 5 4 4 3 2 2 0 1 1 2 1 2
6 6 6 4 5 4 3 3 2 1 2 4 4 0 3 3 9 11 10 5 6 5 5 6 5 9 10 12 10 11 8 3 4 3 2 2 2 2 1 1 1 1 2
6 6 6 5 5 5 4 3 2 2 2 3 2 1 1 4 10 10 12 4 5 4 6 6 5 5 9 7 6 7 7 8 4 2 2 1 2 1 2 1 1 1 1
6 6 6 6 4 4 2 1 2 2 2 3 3 0 2 2 8 10 11 5 5 3 4 5 5 6 7 9 5 4 4 5 4 2 1 2 3 4 2 0 2 2 2
6 6 4 6 4 1 2 1 1 2 3 2 2 2 3 2 7 9 8 4 5 5 2 3 4 6 9 12 6 6 5 6 5 3 0 3 2 4 3 2 2 1 3
8 6 5 4 3 2 2 2 2 2 2 2 3 1 3 2 5 7 6 3 5 5 4 1 8 6 8 9 5 5 5 4 5 4 3 2 3 4 6 4 3 2 2
7 6 5 5 3 1 2 2 2 2 3 4 3 3 3 3 3 5 6 3 3 3 4 3 3 9 9 8 6 4 3 6 7 3 2 2 4 3 1 0 1 1 1
7 6 5 4 1 1 3 3 2 3 0 2 2 3 3 2 1 6 9 8 7 3 4 3 3 6 7 7 6 8 9 6 3 3 3 3 2 1 1 2 1 2 2
6 4 3 2 2 2 2 3 2 3 3 4 2 3 3 4 4 9 10 12 9 3 4 7 7 6 6 6 8 10 7 4 4 4 2 1 2 2 2 2 2 2 3
6 4 2 2 3 3 2 2 1 2 1 4 3 3 3 2 4 4 4 5 7 6 9 6 5 2 4 4 4 5 4 4 3 3 3 3 2 2 1 0 1 1 1
4 3 4 3 4 4 4 4 3 2 2 3 2 2 1 2 2 4 3 4 4 5 6 3 3 3 3 2 2 3 3 4 4 3 3 3 3 3 3 3 2 2 0
4 3 4 2 4 4 3 4 5 7 7 6 8 5 2 3 1 6 8 8 10 5 3 2 3 3 3 3 2 3 2 3 3 3 3 3 3 2 3 2 1 2 2
5 4 1 3 4 3 1 1 1 2 4 6 8 7 6 3 3 7 8 10 9 7 3 3 3 4 3 3 3 1 3 2 2 3 3 3 2 2 3 3 3 1 1
5 3 2 3 0 3 1 2 2 2 3 3 5 7 8 4 4 6 8 9 3 2 1 2 3 4 3 3 4 3 2 3 2 2 3 3 3 1 2 2 3 3 2
4 1 1 3 2 1 2 2 4 4 2 3 2 0 6 6 7 6 7 2 2 3 3 3 3 3 3 2 3 4 4 4 3 3 3 3 2 2 3 3 3 4 4
4 4 1 2 2 1 2 3 2 3 3 3 3 3 1 4 1 2 1 3 3 3 3 3 4 3 4 3 1 3 4 4 4 4 3 2 2 2 2 4 4 4 4
3 4 4 3 3 3 2 4 3 3 3 3 4 3 6 4 3 3 3 2 3 3 3 3 3 3 4 4 1 2 3 3 4 4 4 4 4 2 2 3 5 5 5
3 3 3 4 4 4 4 3 4 2 4 4 3 4 6 3 3 2 3 3 3 4 3 3 3 4 4 3 2 3 3 3 3 4 5 4 4 4 3 4 6 6 4
3 4 4 4 4 4 4 4 3 4 3 6 5 5 3 3 2 2 3 3 4 4 4 4 4 4 4 4 4 4 3 3 4 4 4 4 4 3 3 4 5 6 4
3 5 5 5 4 3 3 3 3 4 7 7 6 4 4 3 2 3 2 3 4 4 4 4 4 4 6 6 4 3 3 3 4 4 5 4 4 4 4 5 5 6 6
5 5 5 5 4 3 2 4 5 6 6 6 5 4 2 3 1 2 2 3 4 5 7 6 2 7 8 8 6 4 2 5 5 5 4 6 6 7 6 4 6 6 8
6 4 4 2 3 3 4 5 5 5 5 5 5 4 4 3 2 2 3 4 4 4 5 5 9 9 8 5 4 2 5 6 7 8 6 5 6 5 5 5 8 6 8
Wind_Direction
125 133 97 105 19 26 34 30 13 353 359 352 360 1 5 8 354 351 339 356 355 343 335 336 330 335 332 321 317 310 308 288 241 57 55 26 41 38 42 45 45 45 55
135 128 161 141 48 33 72 48 12 0 352 346 7 12 14 15 353 349 345 350 347 339 341 333 336 346 349 325 320 315 300 295 289 128 79 69 61 45 44 48 40 47 44
128 142 164 142 87 21 7 18 354 354 347 357 12 22 4 10 354 340 337 339 331 326 325 333 337 354 341 336 332 320 308 289 235 133 107 74 65 53 48 41 32 48 45
134 148 180 154 193 246 232 319 3 3 15 0 1 40 12 16 359 341 333 337 335 332 336 345 356 1 344 347 348 339 338 17 99 102 97 81 82 52 75 58 56 35 54
144 173 183 195 210 227 256 293 316 69 5 1 18 39 8 21 357 334 325 324 329 343 354 358 10 13 7 8 2 347 4 30 61 97 90 72 74 7 78 47 85 85 62
168 199 185 206 212 214 254 287 323 87 13 11 12 36 10 354 340 341 342 337 344 10 5 359 9 21 357 354 1 22 31 46 65 67 74 94 95 101 116 129 118 44 101
186 194 203 213 219 223 242 295 68 359 359 352 353 229 8 349 333 346 344 343 359 29 21 3 4 16 2 344 345 15 29 29 53 126 128 137 124 133 155 139 316 339 127
197 201 199 194 206 228 291 146 23 333 331 321 318 31 138 316 334 344 351 356 12 25 46 17 8 7 359 354 347 339 4 22 8 13 122 166 141 166 154 228 280 295 56
192 188 203 170 193 277 279 12 351 336 308 307 308 180 164 273 334 350 1 5 360 1 53 58 29 3 344 359 10 12 33 16 340 358 128 188 186 186 224 294 270 128 216
191 178 138 143 109 24 21 341 283 310 300 327 351 22 139 189 331 358 5 4 353 353 356 100 22 6 353 8 39 12 4 324 324 314 294 295 230 246 252 238 268 229 219
148 139 125 106 86 354 35 327 333 300 347 337 333 156 166 206 273 355 0 7 351 350 359 1 12 359 354 3 35 19 280 284 308 326 103 66 61 112 61 59 51 97 191
125 124 110 85 9 321 342 322 343 1 287 334 59 149 214 233 74 13 12 11 352 66 350 327 322 355 347 354 351 332 6 358 19 36 54 42 47 15 359 340 22 41 57
119 128 122 116 285 297 314 302 337 1 13 11 47 28 27 56 27 16 15 10 10 7 339 318 299 344 354 358 353 6 13 18 13 28 36 293 248 256 265 280 54 46 24
134 132 150 211 258 285 278 258 219 269 349 61 54 34 360 38 14 1 359 351 344 341 340 327 4 347 290 302 342 6 13 359 19 359 341 318 303 335 344 330 247 224 186
132 164 246 246 245 259 250 243 233 222 168 164 151 142 87 335 295 255 272 330 319 296 320 337 16 5 2 347 352 14 13 1 5 345 351 344 2 1 2 3 10 346 144
166 237 238 240 251 248 245 278 257 195 181 140 152 155 226 158 299 332 334 336 329 334 352 337 358 0 358 345 342 340 10 8 335 328 338 344 356 19 347 329 338 358 347
182 229 300 300 260 206 222 99 295 264 204 181 177 196 202 204 326 323 328 332 337 13 30 355 342 341 328 327 341 288 307 319 320 334 331 330 332 325 342 328 332 310 324
174 177 257 279 333 102 74 291 300 268 262 219 239 214 234 225 262 304 319 329 354 14 20 339 340 325 323 354 351 347 318 330 311 325 323 319 318 295 307 303 303 294 301
174 172 196 290 180 130 305 322 302 316 300 178 150 82 256 212 238 284 316 275 324 356 345 342 357 338 347 340 0 3 357 332 347 306 294 303 330 340 319 306 295 298 300
173 159 204 317 292 237 306 282 301 328 335 182 156 200 37 95 163 190 87 16 360 348 351 349 339 340 326 328 325 22 2 351 358 351 328 2 302 284 331 326 318 298 290
182 188 207 276 298 262 261 284 296 304 318 78 127 120 98 102 69 76 75 20 8 343 336 327 329 323 312 312 227 81 35 5 358 352 2 347 326 336 359 327 310 297 286
202 203 220 227 250 269 254 250 253 287 291 151 137 84 62 73 86 65 51 19 346 327 323 331 314 303 294 295 122 82 67 6 342 338 331 317 330 12 360 343 319 314 315
208 221 240 260 250 264 270 259 258 256 335 106 98 98 95 75 75 42 8 353 338 323 316 308 295 295 310 70 75 78 70 344 320 311 316 324 329 334 317 301 303 303 312
259 224 232 246 262 227 242 264 314 51 99 96 100 103 89 65 48 27 58 342 317 309 297 294 296 26 81 66 81 71 31 351 320 311 328 302 297 290 290 281 287 288 287
246 238 220 241 223 223 340 67 83 100 102 109 104 92 91 98 19 27 2 336 318 308 301 296 14 96 82 66 45 40 25 322 312 307 306 296 287 289 282 265 283 284 289
290 217 198 145 79 77 115 109 108 109 109 119 113 113 104 77 51 15 351 327 311 322 360 45 91 97 81 54 26 83 345 337 331 322 311 286 281 279 282 271 291 287 285